CAY832 MWCR-MUHA

Flight info

Callsign CAY832
Flight time 0h 47m
Altitude 30000
Route SRAY2 RIKEL DCT UCL DUTAN1A
Aircraft B38M/M-SDE1FGHILORVWXY/HB1

Departure

Time 2026-05-05 14:43
Airport Owen Roberts International Airport (MWCR)

Arrival

Time 2026-05-05 15:30
Airport José Martí International Airport (MUHA)
Time Latitude Longitude Altitude Speed Heading
2026-05-05 14:37 19.29463 -81.35671 20 ft 0 kts 257°
2026-05-05 14:37 19.29462 -81.35674 21 ft 2 kts 258°
2026-05-05 14:38 19.29454 -81.35710 18 ft 10 kts 256°
2026-05-05 14:38 19.29428 -81.35803 20 ft 12 kts 230°
2026-05-05 14:38 19.29345 -81.35805 17 ft 14 kts 160°
2026-05-05 14:38 19.29258 -81.35832 17 ft 14 kts 242°
2026-05-05 14:39 19.29236 -81.35933 18 ft 15 kts 256°
2026-05-05 14:39 19.29212 -81.36044 20 ft 16 kts 256°
2026-05-05 14:39 19.29187 -81.36158 18 ft 1 kts 258°
2026-05-05 14:39 19.29185 -81.36168 18 ft 4 kts 257°
2026-05-05 14:40 19.29171 -81.36233 18 ft 15 kts 256°
2026-05-05 14:40 19.29140 -81.36365 20 ft 20 kts 255°
2026-05-05 14:40 19.29103 -81.36519 17 ft 23 kts 256°
2026-05-05 14:40 19.29074 -81.36646 17 ft 13 kts 256°
2026-05-05 14:41 19.29050 -81.36746 18 ft 15 kts 257°
2026-05-05 14:41 19.29024 -81.36857 21 ft 17 kts 260°
2026-05-05 14:41 19.29060 -81.36934 18 ft 11 kts 321°
2026-05-05 14:41 19.29058 -81.37001 19 ft 10 kts 220°
2026-05-05 14:42 19.29003 -81.36969 19 ft 11 kts 109°
2026-05-05 14:42 19.29050 -81.36755 18 ft 69 kts 75°
2026-05-05 14:42 19.29232 -81.35979 18 ft 146 kts 75°
2026-05-05 14:42 19.29529 -81.34804 422 ft 176 kts 72°
2026-05-05 14:43 19.29945 -81.33522 1318 ft 184 kts 69°
2026-05-05 14:43 19.30553 -81.32329 2159 ft 199 kts 46°
2026-05-05 14:43 19.31876 -81.31603 2562 ft 234 kts 12°
2026-05-05 14:43 19.33583 -81.31526 3304 ft 248 kts
2026-05-05 14:44 19.35204 -81.30967 4229 ft 258 kts 38°
2026-05-05 14:44 19.36522 -81.29609 5060 ft 270 kts 44°
2026-05-05 14:44 19.37922 -81.28282 6169 ft 272 kts 41°
2026-05-05 14:44 19.39373 -81.26965 7115 ft 278 kts 41°
2026-05-05 14:45 19.40865 -81.25636 8054 ft 283 kts 39°
2026-05-05 14:45 19.42393 -81.24291 8979 ft 288 kts 39°
2026-05-05 14:45 19.43956 -81.22924 9883 ft 294 kts 38°
2026-05-05 14:45 19.45568 -81.21523 10574 ft 306 kts 38°
2026-05-05 14:46 19.47426 -81.20308 11040 ft 322 kts 20°
2026-05-05 14:46 19.49646 -81.19867 11630 ft 331 kts 358°
2026-05-05 14:46 19.51955 -81.20185 12266 ft 338 kts 349°
2026-05-05 14:46 19.54291 -81.20570 13090 ft 342 kts 350°
2026-05-05 14:47 19.56666 -81.20946 13821 ft 347 kts 350°
2026-05-05 14:47 19.59091 -81.20997 14506 ft 352 kts
2026-05-05 14:47 19.61438 -81.20233 15263 ft 355 kts 19°
2026-05-05 14:47 19.63771 -81.19314 15918 ft 359 kts 19°
2026-05-05 14:48 19.66116 -81.18374 16619 ft 361 kts 19°
2026-05-05 14:48 19.68468 -81.17419 17282 ft 364 kts 19°
2026-05-05 14:48 19.70808 -81.16462 17932 ft 366 kts 19°
2026-05-05 14:48 19.73197 -81.15482 18546 ft 369 kts 19°
2026-05-05 14:49 19.75596 -81.14496 19083 ft 371 kts 19°
2026-05-05 14:49 19.78006 -81.13505 19632 ft 373 kts 19°
2026-05-05 14:49 19.80431 -81.12507 20163 ft 375 kts 19°
2026-05-05 14:49 19.82874 -81.11502 20691 ft 377 kts 19°
2026-05-05 14:50 19.85326 -81.10492 21216 ft 379 kts 19°
2026-05-05 14:50 19.87797 -81.09475 21730 ft 381 kts 19°
2026-05-05 14:50 19.90286 -81.08450 22238 ft 384 kts 19°
2026-05-05 14:50 19.92779 -81.07422 22732 ft 386 kts 18°
2026-05-05 14:51 19.95299 -81.06383 23193 ft 389 kts 18°
2026-05-05 14:51 19.97845 -81.05399 23657 ft 390 kts 12°
2026-05-05 14:51 20.00521 -81.05103 24046 ft 387 kts 354°
2026-05-05 14:51 20.03171 -81.05601 24409 ft 388 kts 345°
2026-05-05 14:52 20.05806 -81.06296 24770 ft 391 kts 344°
2026-05-05 14:52 20.08447 -81.07038 25168 ft 393 kts 343°
2026-05-05 14:52 20.11059 -81.07797 25551 ft 395 kts 343°
2026-05-05 14:52 20.13715 -81.08583 25935 ft 397 kts 343°
2026-05-05 14:53 20.16384 -81.09382 26315 ft 399 kts 343°
2026-05-05 14:53 20.19069 -81.10190 26699 ft 402 kts 343°
2026-05-05 14:53 20.21757 -81.11001 27060 ft 404 kts 343°
2026-05-05 14:53 20.24468 -81.11819 27425 ft 406 kts 343°
2026-05-05 14:54 20.27199 -81.12643 27793 ft 408 kts 343°
2026-05-05 14:54 20.29940 -81.13471 28151 ft 410 kts 343°
2026-05-05 14:54 20.32692 -81.14303 28497 ft 413 kts 343°
2026-05-05 14:54 20.35467 -81.15141 28842 ft 415 kts 343°
2026-05-05 14:55 20.38254 -81.15984 29180 ft 417 kts 343°
2026-05-05 14:55 20.41056 -81.16832 29514 ft 419 kts 343°
2026-05-05 14:55 20.43868 -81.17683 29841 ft 421 kts 343°
2026-05-05 14:55 20.46704 -81.18541 30054 ft 424 kts 343°
2026-05-05 14:56 20.52357 -81.20253 30051 ft 421 kts 343°
2026-05-05 14:56 20.57987 -81.21960 30053 ft 421 kts 343°
2026-05-05 14:57 20.63561 -81.23651 30053 ft 418 kts 343°
2026-05-05 14:57 20.69166 -81.25353 30053 ft 418 kts 343°
2026-05-05 14:58 20.74759 -81.27052 30053 ft 418 kts 343°
2026-05-05 14:58 20.80359 -81.28754 30049 ft 418 kts 343°
2026-05-05 14:59 20.85962 -81.30460 30053 ft 419 kts 343°
2026-05-05 14:59 20.91538 -81.32158 30053 ft 419 kts 343°
2026-05-05 15:00 20.96230 -81.33588 30053 ft 417 kts 342°
2026-05-05 15:00 21.02725 -81.35568 30053 ft 418 kts 342°
2026-05-05 15:01 21.08318 -81.37276 30048 ft 418 kts 342°
2026-05-05 15:01 21.13910 -81.38984 30048 ft 418 kts 342°
2026-05-05 15:02 21.19495 -81.40692 30048 ft 418 kts 342°
2026-05-05 15:02 21.25083 -81.42401 30048 ft 418 kts 342°
2026-05-05 15:03 21.30678 -81.44114 30048 ft 418 kts 342°
2026-05-05 15:03 21.36235 -81.45817 30048 ft 418 kts 342°
2026-05-05 15:04 21.41824 -81.47531 30047 ft 417 kts 342°
2026-05-05 15:04 21.44563 -81.48372 30026 ft 402 kts 342°
2026-05-05 15:04 21.47209 -81.49184 29922 ft 389 kts 342°
2026-05-05 15:05 21.52339 -81.50760 29033 ft 381 kts 342°
2026-05-05 15:05 21.54887 -81.51542 28535 ft 380 kts 342°
2026-05-05 15:05 21.57419 -81.52321 28076 ft 377 kts 342°
2026-05-05 15:06 21.59925 -81.53114 27600 ft 374 kts 338°
2026-05-05 15:06 21.62194 -81.54377 27072 ft 371 kts 326°
2026-05-05 15:06 21.64396 -81.55809 26689 ft 368 kts 328°
2026-05-05 15:06 21.66586 -81.57203 26288 ft 365 kts 328°
2026-05-05 15:07 21.68761 -81.58599 25882 ft 362 kts 327°
2026-05-05 15:07 21.70919 -81.59990 25476 ft 361 kts 327°
2026-05-05 15:07 21.72343 -81.60908 25210 ft 359 kts 327°
2026-05-05 15:07 21.74483 -81.62289 24815 ft 358 kts 327°
2026-05-05 15:08 21.76614 -81.63665 24424 ft 356 kts 327°
2026-05-05 15:08 21.79421 -81.65479 23915 ft 354 kts 327°
2026-05-05 15:08 21.80845 -81.66399 23663 ft 353 kts 327°
2026-05-05 15:08 21.82954 -81.67763 23224 ft 352 kts 327°
2026-05-05 15:09 21.85015 -81.69096 22840 ft 349 kts 327°
2026-05-05 15:09 21.87085 -81.70435 22467 ft 346 kts 327°
2026-05-05 15:09 21.89144 -81.71768 22101 ft 342 kts 327°
2026-05-05 15:09 21.91178 -81.73085 21748 ft 339 kts 327°
2026-05-05 15:10 21.93189 -81.74388 21403 ft 336 kts 327°
2026-05-05 15:10 21.95187 -81.75682 21052 ft 333 kts 327°
2026-05-05 15:10 21.97163 -81.76963 20707 ft 330 kts 328°
2026-05-05 15:10 21.99125 -81.78234 20366 ft 327 kts 328°
2026-05-05 15:11 22.01042 -81.79478 20034 ft 325 kts 328°
2026-05-05 15:11 22.02991 -81.80742 19695 ft 322 kts 328°
2026-05-05 15:11 22.04879 -81.81968 19362 ft 320 kts 328°
2026-05-05 15:11 22.06775 -81.83198 19038 ft 317 kts 328°
2026-05-05 15:12 22.08664 -81.84425 18708 ft 315 kts 328°
2026-05-05 15:12 22.10531 -81.85638 18387 ft 313 kts 328°
2026-05-05 15:12 22.12390 -81.86847 18024 ft 310 kts 328°
2026-05-05 15:12 22.14229 -81.88042 17676 ft 307 kts 328°
2026-05-05 15:13 22.16053 -81.89228 17362 ft 304 kts 328°
2026-05-05 15:13 22.17862 -81.90405 17044 ft 302 kts 328°
2026-05-05 15:13 22.19671 -81.91582 16720 ft 307 kts 328°
2026-05-05 15:13 22.21515 -81.92782 16400 ft 312 kts 328°
2026-05-05 15:14 22.23381 -81.93997 16070 ft 314 kts 328°
2026-05-05 15:14 22.25252 -81.95215 15759 ft 314 kts 328°
2026-05-05 15:14 22.27125 -81.96435 15436 ft 314 kts 327°
2026-05-05 15:14 22.28992 -81.97652 15106 ft 312 kts 327°
2026-05-05 15:15 22.30844 -81.98859 14787 ft 310 kts 327°
2026-05-05 15:15 22.32662 -82.00044 14466 ft 308 kts 327°
2026-05-05 15:15 22.34497 -82.01241 14153 ft 307 kts 327°
2026-05-05 15:15 22.36323 -82.02432 13820 ft 306 kts 327°
2026-05-05 15:16 22.38140 -82.03618 13459 ft 305 kts 327°
2026-05-05 15:16 22.39951 -82.04800 13123 ft 302 kts 327°
2026-05-05 15:16 22.41744 -82.05971 12803 ft 300 kts 327°
2026-05-05 15:16 22.43520 -82.07131 12499 ft 297 kts 327°
2026-05-05 15:17 22.45288 -82.08286 12181 ft 295 kts 327°
2026-05-05 15:17 22.47042 -82.09432 11872 ft 293 kts 327°
2026-05-05 15:17 22.48783 -82.10571 11561 ft 293 kts 327°
2026-05-05 15:17 22.50546 -82.11724 11266 ft 299 kts 327°
2026-05-05 15:18 22.52332 -82.12893 10954 ft 301 kts 327°
2026-05-05 15:18 22.54117 -82.14061 10636 ft 299 kts 327°
2026-05-05 15:18 22.55888 -82.15219 10384 ft 295 kts 327°
2026-05-05 15:18 22.57619 -82.16353 10247 ft 286 kts 327°
2026-05-05 15:19 22.59300 -82.17454 10121 ft 278 kts 326°
2026-05-05 15:19 22.60941 -82.18529 9878 ft 274 kts 326°
2026-05-05 15:19 22.62570 -82.19596 9557 ft 273 kts 326°
2026-05-05 15:19 22.64192 -82.20659 9244 ft 272 kts 326°
2026-05-05 15:20 22.65781 -82.21701 8948 ft 269 kts 326°
2026-05-05 15:20 22.67157 -82.23031 8610 ft 264 kts 301°
2026-05-05 15:20 22.67999 -82.24778 8331 ft 260 kts 295°
2026-05-05 15:20 22.68788 -82.26531 8075 ft 257 kts 294°
2026-05-05 15:21 22.69556 -82.28271 7810 ft 255 kts 294°
2026-05-05 15:21 22.70310 -82.29998 7544 ft 252 kts 294°
2026-05-05 15:21 22.71052 -82.31714 7265 ft 250 kts 294°
2026-05-05 15:21 22.71784 -82.33416 7022 ft 250 kts 294°
2026-05-05 15:22 22.72526 -82.35149 6759 ft 256 kts 294°
2026-05-05 15:22 22.73282 -82.36916 6481 ft 260 kts 294°
2026-05-05 15:22 22.74033 -82.38674 6184 ft 261 kts 294°
2026-05-05 15:22 22.74794 -82.40458 5891 ft 260 kts 294°
2026-05-05 15:23 22.75551 -82.42234 5597 ft 259 kts 294°
2026-05-05 15:23 22.76306 -82.44002 5317 ft 257 kts 294°
2026-05-05 15:23 22.77048 -82.45744 5081 ft 253 kts 294°
2026-05-05 15:23 22.77778 -82.47456 4883 ft 247 kts 294°
2026-05-05 15:24 22.78485 -82.49116 4752 ft 237 kts 294°
2026-05-05 15:24 22.79166 -82.50702 4624 ft 227 kts 296°
2026-05-05 15:24 22.80177 -82.51964 4446 ft 221 kts 322°
2026-05-05 15:24 22.81387 -82.52927 4333 ft 209 kts 322°
2026-05-05 15:25 22.82511 -82.53818 4169 ft 199 kts 322°
2026-05-05 15:25 22.83630 -82.54699 3859 ft 199 kts 322°
2026-05-05 15:25 22.84815 -82.55458 3530 ft 200 kts 341°
2026-05-05 15:25 22.86185 -82.55464 3280 ft 200 kts 15°
2026-05-05 15:26 22.87352 -82.54687 3048 ft 197 kts 40°
2026-05-05 15:26 22.88303 -82.53646 2818 ft 191 kts 45°
2026-05-05 15:26 22.89253 -82.52650 2407 ft 189 kts 42°
2026-05-05 15:26 22.90241 -82.51703 1826 ft 195 kts 37°
2026-05-05 15:27 22.91250 -82.50714 1331 ft 194 kts 40°
2026-05-05 15:27 22.92222 -82.49750 1032 ft 183 kts 41°
2026-05-05 15:27 22.93109 -82.48847 850 ft 163 kts 43°
2026-05-05 15:27 22.93858 -82.48008 641 ft 151 kts 46°
2026-05-05 15:28 22.94553 -82.47159 529 ft 151 kts 48°
2026-05-05 15:28 22.95253 -82.46293 439 ft 156 kts 49°
2026-05-05 15:28 22.95952 -82.45366 592 ft 149 kts 60°
2026-05-05 15:28 22.96521 -82.44476 521 ft 150 kts 54°
2026-05-05 15:29 22.97185 -82.43499 533 ft 160 kts 53°
2026-05-05 15:29 22.97825 -82.42554 295 ft 152 kts 53°
2026-05-05 15:29 22.98398 -82.41692 221 ft 125 kts 54°
2026-05-05 15:29 22.98777 -82.41119 219 ft 62 kts 54°
2026-05-05 15:30 22.98945 -82.40856 224 ft 23 kts 59°
2026-05-05 15:30 22.99044 -82.40729 219 ft 28 kts 50°
2026-05-05 15:30 22.99181 -82.40507 220 ft 43 kts 54°
2026-05-05 15:30 22.99313 -82.40416 223 ft 21 kts
2026-05-05 15:31 22.99394 -82.40400 222 ft 8 kts 10°
2026-05-05 15:31 22.99458 -82.40395 225 ft 11 kts 356°
2026-05-05 15:31 22.99539 -82.40445 223 ft 16 kts 323°
2026-05-05 15:31 22.99653 -82.40517 220 ft 16 kts 338°
2026-05-05 15:32 22.99723 -82.40561 224 ft 8 kts 305°
2026-05-05 15:32 22.99715 -82.40609 223 ft 9 kts 237°
2026-05-05 15:32 22.99699 -82.40635 219 ft 4 kts 236°
2026-05-05 15:32 22.99696 -82.40640 222 ft 0 kts 236°